Regional Weather Roundup
Issued by NWS

Home | Current Version | Previous Version | Text Only | Print | Product List | Glossary Off
Versions: 1 2 3 4 5 6 7 8 9 10 11 12 13 14 15 16 17 18 19 20 21 22 23 24 25 26 27 28 29 30 31 32 33 34 35 36 37 38 39 40 41 42 43 44 45 46 47 48 49 50

000
ASUS43 KLSX 100059
RWRMO

WEATHER SUMMARY FOR MISSOURI
NATIONAL WEATHER SERVICE SPRINGFIELD MO
800 PM CDT WED JUL 09 2014

NOTE: "FAIR" INDICATES FEW OR NO CLOUDS BELOW 12,000 FEET WITH NO
       SIGNIFICANT WEATHER AND/OR OBSTRUCTIONS TO VISIBILITY.
       CURRENT SKY AND/OR WEATHER CONDITIONS ARE NOT AVAILABLE FOR
       CHILLICOTHE AND FARMINGTON.

MOZ001>031-035>038-043-044-053-054-100200-
...NORTHERN AND WESTERN MISSOURI...

CITY           SKY/WX    TMP DP  RH WIND       PRES   REMARKS
KANSAS CTY INT PTCLDY    79  59  50 E9        30.02R
KANSAS C DTWN  PTCLDY    80  57  45 NE10      30.00R
LEE`S SUMMIT   PTCLDY    77  61  57 E6        30.03R
ST JOSEPH      MOCLDY    78  63  59 NE7       30.02R
CHILLICOTHE      N/A     77  61  57 CALM      30.04R
KIRKSVILLE     PTCLDY    73  62  68 CALM      30.04F

$$
MOZ066>068-077>081-088>096-101>105-100200-
...SOUTHWEST MISSOURI...

CITY           SKY/WX    TMP DP  RH WIND       PRES   REMARKS
SPRINGFIELD    CLEAR     79  60  52 N5        30.03S
JOPLIN         CLEAR     80  58  46 NE6       30.02S

$$
MOZ032>034-039>042-045>050-055>058-069>072-100200-
...CENTRAL MISSOURI...

CITY           SKY/WX    TMP DP  RH WIND       PRES   REMARKS
COLUMBIA       CLEAR     75  60  59 N6        30.03S
JEFFERSON CITY CLEAR     78  60  53 N5        30.01S
ROLLA            N/A    N/A N/A N/A MISG      30.02R
SEDALIA        CLEAR     76  64  66 NE3       30.03S
OSAGE BEACH    CLEAR     73  63  68 N3        30.02S

$$
MOZ051-052-059>065-100200-
...EAST CENTRAL MISSOURI...

CITY           SKY/WX    TMP DP  RH WIND       PRES   REMARKS
ST LOUIS INTL  PTCLDY    76  56  49 N7        30.01S
SPIRIT OF STL  CLEAR     78  58  49 N5        30.00R
ST CHARLES     CLEAR     74  60  61 N6        30.00R

$$
MOZ072>076-082>087-097>100-106>115-100200-
...SOUTH CENTRAL AND SOUTHEAST MISSOURI...

CITY           SKY/WX    TMP DP  RH WIND       PRES   REMARKS
CAPE GIRARDEAU CLEAR     80  64  58 NW5       29.98R
FARMINGTON     PTCLDY    79  61  53 CALM      30.03R
POPLAR BLUFF   CLEAR     78  68  71 CALM      29.98S
WEST PLAINS    CLEAR     78  62  57 CALM      30.04S

$$



USA.gov is the U.S. government's official web portal to all federal, state and local government web resources and services.